SL-16 DEB

Satellite information

Favourite Embed

Satellite Type and Status

DEBRISIN ORBIT

Key statistics

Satellite SL-16 DEB at a glance.

Uptime

11951

Days in orbit

Revolutions

≈ 14.4

Per day

Orbit

LEO

Low Earth Orbit

Inclination

71.0

Latest

Satellite identification and parameters

Extended collection of information and parameters for SL-16 DEB.

Object identification

Identified? True

Debris? True

Object name: SL-16 DEB

International designator: 1993-016W

Object number (NORAD): 22612

Object ID (CCSDS): 22612

Country: COMMONWEALTH OF INDEPENDENT STATES (CIS)

Current information (Y/N): Y

RCS size: SMALL

Orbital parameters

Period: 99.943 minutes

Inclination: 70.9758 deg

SMA: 7133.904 km

Apoapsis: 800.433 km

Periapsis: 711.105 km

RAAN: 329.2409 deg

Eccentricy: 0.00626077

Argument of periapsis: 193.8255 deg

Mean anomaly: 228.9478 deg

Mean motion: 14.4082712 rev/day

Mean motion (dot): 0.00009469 rev/day2

B* drag term: 0.0028981725 1/REarth

Two-line elements (TLE)

Creation date: Dec. 13, 2025, 4:32 a.m.

Reference frame: TEME

Reference center: EARTH

Epoch: Dec. 12, 2025, 11:56 p.m. UTC

TLE line 0: 0 SL-16 DEB

TLE line 1: 1 22612U 93016W 25346.99740516 .00009469 00000-0 28982-2 0 9992

TLE line 2: 2 22612 70.9758 329.2409 0062608 193.8255 228.9478 14.40827120680266

Live tracking on map

Real-time ground track for satellite SL-16 DEB.

In-orbit conjunctions

A list of the most updated potential collisions computed for object SL-16 DEB.

Target Orbit TCA Probability of collision Miss distance Type
HEALTHSAT 1 SSO 2025-12-05 02:00:29 0.0001753447 196.0 (m) PAYLOAD
NOAA 16 DEB SSO 2024-10-12 00:28:29 0.0001159023 70.0 (m) DEBRIS
IRIDIUM 920 LEO 2024-09-27 22:42:03 0.0002549024 498.0 (m) PAYLOAD

Associated space launch

Second generation ELING satellite

SL-16 DEB was lifted into orbit during the mission ‘Zenit-2 | Tselina-2 13’, on board a Zenit-2 space rocket.

The launch took place on March 26, 1993, 2:21 a.m. from 45/1.

For more information about the launch, click the button.

Launch to space Zenit-2 | Tselina-2 13
Zenit-2 | Tselina-2 13

Agency: N/A

Status: Launch Successful

Launch date: March 26, 1993, 2:21 a.m. UTC

Rocket: Zenit-2

Launch pad: 45/1

Location: Baikonur Cosmodrome, Republic of Kazakhstan

...

Latest news about this satellite

There are no fresh news available about this satellite. Check back as we update our databases every day.


Newsletter sign-up

Weekly statistics, charts and insights to help you stay on top of the space industry.